Погода в Уйгате

Россия / Иркутская область     54°04′53″N   100°35′41″E
темп.,
°C
ветер,
м/с
пор.,
м/с
влажн.,
%
обл.,
%
осадки,
мм/ч
давл.,
гПа
погр.,
м
28 февраля, вс
вс2823:00−23юв2398100 0.0 103947
02:00−25юз0191100 0.0 103920
05:00−25зсз2293100 0.0 103925
08:00−25юз1295100 0.0 104120
11:00−19юв1286100 0.0 1040231
14:00−16вюв2378100 0.0 1038646
17:00−16вюв2384100 0.0 1038536
20:00−20вюв2496100 0.0 103871
1 марта, пн
пн123:00−22вюв229796 0.0 103826
02:00−22ююв119598 0.0 103620
05:00−22з1191100 0.0 103320
08:00−23св0090100 0.0 103220
11:00−17в1183100 0.0 1028215
14:00−13вюв2376100 0.0 1023371
17:00−12вюв2488100 0.0 1019359
20:00−15в2396100 0.0 1018107
2 марта, вт
вт223:00−16юв1297100 0.0 101623
02:00−15с1194100 0.0 101420
05:00−14юз1193100 0.1 101220
08:00−15всв1191100 0.1 101220
11:00−11ссв1293100 0.3 1010233
14:00−9ссв2391100 0.8 1010347
17:00−10с2493100 1.3 1011393
20:00−13с2596100 1.5 1015161
3 марта, ср
ср323:00−14ссв1297100 1.1 1017129
02:00−17ссв2497100 1.7 1017157
05:00−19с2498100 0.5 1019207
08:00−22ссз2399100 0.9 1022188
11:00−21с2395100 0.3 1022283
14:00−19ссв2288100 0.3 1022474
17:00−19ссв2287100 0.1 1023545
20:00−24ссв229499 0.1 102620
4 марта, чт
чт423:00−28всв1110081 0.0 102919
02:00−30в119990 0.0 103019
05:00−31вюв119898 0.0 103219
08:00−33в119978 0.0 103419
11:00−24в239129 0.0 1034280
14:00−19в248964 0.0 1032493
17:00−18вюв3489100 0.0 1032481
20:00−22в2498100 0.0 103572